Location: Nag� el Ma?a??a
(24.0667°N, 32.8833°E)
Time: 02:43:35
(UTC+00:00)

Tiangong - Visible Passes

Search period start: 27 November 2021 00:00
Search period end: 07 December 2021 00:00
Orbit: 381 x 385 km, 41.5° (Epoch: 26 November)

Date Brightness Start Highest point End Pass type
(mag) Time Alt. Az. Time Alt. Az. Time Alt. Az.
27 Nov 3.9 02:27:41 12° NE 02:27:41 12° NE 02:28:30 10° NE visible
28 Nov 2.0 03:02:42 26° NNW 03:03:59 40° NNE 03:06:58 10° ESE visible
29 Nov 4.3 02:05:34 12° ENE 02:05:34 12° ENE 02:06:01 10° E visible
29 Nov 2.1 03:37:45 11° WNW 03:40:23 32° SW 03:43:13 10° SSE visible
30 Nov 1.5 02:40:39 59° SE 02:40:39 59° SE 02:43:16 10° SE visible
01 Dec 3.2 03:15:45 14° SW 03:16:20 14° SW 03:18:07 10° S visible
02 Dec 4.1 02:18:40 12° SSE 02:18:40 12° SSE 02:18:56 10° SSE visible
02 Dec 4.3 17:04:45 10° SW 17:05:04 12° SW 17:05:04 12° SW visible
03 Dec 2.6 16:05:00 10° SSW 16:07:30 22° SE 16:07:54 21° SE visible
04 Dec 2.3 16:40:35 10° WSW 16:42:52 41° W 16:42:52 41° W visible
05 Dec 1.4 15:40:10 10° SW 15:43:14 52° SE 15:45:33 16° ENE visible
06 Dec 2.6 16:16:45 10° W 16:19:29 27° NNW 16:20:20 24° N visible
